Regional Weather Roundup
Issued by NWS

Home | Current Version | Previous Version | Graphics & Text | Print | Product List | Glossary On
Versions: 1 2 3 4 5 6 7 8 9 10 11 12 13 14 15 16 17 18 19 20 21 22 23 24 25 26 27 28 29 30 31 32 33 34 35 36 37 38 39 40 41 42 43 44 45 46 47 48 49 50
000
ASUS45 KCYS 030810
RWRWY

WYOMING REGIONAL WEATHER ROUNDUP
NATIONAL WEATHER SERVICE CHEYENNE WY
200 AM MDT WED JUN 03 2015

NOTE:  "FAIR" INDICATES FEW OR NO CLOUDS BELOW 12,000 FEET
WITH NO SIGNIFICANT WEATHER AND/OR OBSTRUCTIONS TO VISIBILITY.

WYZ001-030900-
YELLOWSTONE NATIONAL PARK

CITY           SKY/WX    TMP DP  RH WIND       PRES   REMARKS
LK YELLOWSTONE   N/A     33  31  92 CALM      30.14S
W YELLOWSTONE  NOT AVBL

$$
WYZ002>013-054>058-071-098>099-030900-
NORTHERN WYOMING

CITY           SKY/WX    TMP DP  RH WIND       PRES   REMARKS
JACKSON        FAIR      46  39  76 S3        30.08S
CODY           FAIR      54  45  71 CALM      30.02F
GREYBULL       FAIR      57  48  72 W12       29.95R
WORLAND        MOCLDY    55  49  80 CALM      29.97R
SHERIDAN       FAIR      49  46  90 SW3       30.01F
BUFFALO        FAIR      48  46  93 W6        30.05S
GILLETTE       MOCLDY    52  50  93 N5        30.01S
HULETT         CLOUDY    54  52  94 N6        30.02F
NEWCASTLE      FAIR      50  48  93 CALM      29.98R

$$
WYZ014>020-022>026-101>103-030900-
CENTRAL WYOMING

CITY           SKY/WX    TMP DP  RH WIND       PRES   REMARKS
BIG PINEY      FAIR      45  38  76 CALM      30.10S
PINEDALE       FAIR      43  37  81 NW5       30.11S
DUBOIS         FAIR      43  32  65 NW9       30.10R
LANDER         FAIR      55  40  56 W9        30.01R
RIVERTON       FAIR      53  44  71 NE12      30.01R
CASPER         FAIR      46  44  93 W3        30.03S
DOUGLAS        FAIR      50  48  93 MISG      30.02S

$$
WYZ021-027>030-104>119-030900-
SOUTHERN WYOMING

CITY           SKY/WX    TMP DP  RH WIND       PRES   REMARKS
EVANSTON       FAIR      50  37  61 S5        30.08S
KEMMERER       FAIR      45  37  76 NW14      30.09F
FORT BRIDGER   SUNNY     55  37  50 CALM      30.12S
ROCK SPRINGS   FAIR      54  33  45 CALM      30.08R
DIXON          FAIR      46  36  70 CALM      30.10S
RAWLINS        FAIR      50  33  52 CALM      30.07R
SARATOGA       FAIR      45  34  65 S8        30.10R
LARAMIE        FAIR      44  35  70 CALM      30.07R
CHEYENNE       FAIR      54  48  80 N14       30.01R
TORRINGTON     FAIR      58  51  78 NE6       29.94R
PINE BLUFFS    FAIR      54  50  87 N6        29.95S

$$


USA.gov is the U.S. government's official web portal to all federal, state and local government web resources and services.